Location: Burleson Alternative School
(32.5290°N, 97.3406°W)
Time: 03:52:03
(UTC+00:00)

Courier 1B - All Passes

Search period start: 12 November 2024 00:00
Search period end: 22 November 2024 00:00
Orbit: 962 x 1208 km, 28.3° (Epoch: 11 November)

Date Brightness Start Highest point End Pass type
(mag) Time Alt. Az. Time Alt. Az. Time Alt. Az.
12 Nov - 00:29:26 10° W 00:35:45 54° S 00:42:20 10° ESE visible
12 Nov - 02:23:44 10° W 02:29:23 30° SSW 02:35:19 10° SE visible
12 Nov - 18:00:35 10° SSE 18:01:18 10° SSE 18:02:03 10° SE daylight
12 Nov - 19:48:59 10° SW 19:54:39 31° SSE 20:00:12 10° E daylight
12 Nov - 21:41:54 10° WSW 21:48:13 55° S 21:54:33 10° E daylight
12 Nov - 23:35:39 10° W 23:41:59 58° S 23:48:29 10° ESE daylight
13 Nov - 01:29:46 10° W 01:35:39 36° SSW 01:41:48 10° SE visible
13 Nov - 03:25:47 10° WSW 03:29:07 14° SSW 03:32:32 10° S visible
13 Nov - 18:55:43 10° SSW 19:00:58 25° SSE 19:06:06 10° ESE daylight
13 Nov - 20:48:11 10° WSW 20:54:29 50° SSE 21:00:41 10° E daylight
13 Nov - 22:41:52 10° W 22:48:13 61° S 22:54:40 10° ESE daylight
14 Nov - 00:35:52 10° W 00:41:56 42° SSW 00:48:12 10° SE visible
14 Nov - 02:31:00 10° WSW 02:35:25 19° SSW 02:39:57 10° SSE visible
14 Nov - 18:02:40 10° SSW 18:07:18 19° SSE 18:11:47 10° ESE daylight
14 Nov - 19:54:31 10° SW 20:00:45 43° SSE 20:06:50 10° E daylight
14 Nov - 21:48:04 10° WSW 21:54:27 61° S 22:00:51 10° E daylight
14 Nov - 23:42:01 10° W 23:48:12 49° SSW 23:54:31 10° ESE visible
15 Nov - 01:36:39 10° WSW 01:41:43 24° SSW 01:46:57 10° SSE visible
15 Nov - 17:10:02 10° S 17:13:36 15° SSE 17:17:03 10° ESE daylight
15 Nov - 19:00:55 10° SW 19:07:02 37° SSE 19:12:57 10° E daylight
15 Nov - 20:54:14 10° WSW 21:00:42 59° S 21:07:02 10° E daylight
15 Nov - 22:48:10 10° W 22:54:29 54° S 23:00:48 10° ESE daylight
16 Nov - 00:42:32 10° W 00:48:02 30° SSW 00:53:41 10° SE visible
16 Nov - 16:18:49 10° SSE 16:19:52 10° SSE 16:20:55 10° SE daylight
16 Nov - 18:07:25 10° SW 18:13:19 30° SSE 18:18:59 10° E daylight
16 Nov - 20:00:25 10° WSW 20:06:57 55° S 20:13:15 10° E daylight
16 Nov - 21:54:18 10° W 22:00:43 59° S 22:07:04 10° ESE daylight
16 Nov - 23:48:31 10° W 23:54:21 36° SSW 00:00:16 10° SE visible
17 Nov - 01:44:31 10° WSW 01:47:43 14° SSW 01:50:57 10° S visible
17 Nov - 17:14:03 10° SSW 17:19:35 25° SSE 17:24:53 10° ESE daylight
17 Nov - 19:06:37 10° WSW 19:13:11 49° SSE 19:19:27 10° E daylight
17 Nov - 21:00:26 10° W 21:06:58 61° S 21:13:19 10° ESE daylight
17 Nov - 22:54:34 10° W 23:00:39 43° SSW 23:06:44 10° SE daylight
18 Nov - 00:49:43 10° WSW 00:54:03 19° SSW 00:58:28 10° SSE visible
18 Nov - 16:20:57 10° SSW 16:25:50 19° SSE 16:30:33 10° ESE daylight
18 Nov - 18:12:51 10° SW 18:19:25 43° SSE 18:25:38 10° E daylight
18 Nov - 20:06:31 10° WSW 20:13:11 61° S 20:19:35 10° E daylight
18 Nov - 22:00:38 10° W 22:06:57 50° SSW 22:13:09 10° ESE daylight
18 Nov - 23:55:21 10° WSW 00:00:25 24° SSW 00:05:31 10° SSE visible
19 Nov - 15:28:15 10° S 15:32:05 15° SSE 15:35:48 10° ESE daylight
19 Nov - 17:19:09 10° SW 17:25:38 37° SSE 17:31:45 10° E daylight
19 Nov - 19:12:36 10° WSW 19:19:23 59° S 19:25:50 10° E daylight
19 Nov - 21:06:42 10° W 21:13:12 56° S 21:19:31 10° ESE daylight
19 Nov - 23:01:10 10° W 23:06:46 31° SSW 23:12:19 10° SE daylight
20 Nov - 14:36:51 10° SSE 14:38:18 11° SSE 14:39:44 10° SE daylight
20 Nov - 16:25:35 10° SW 16:31:50 31° SSE 16:37:47 10° E daylight
20 Nov - 18:18:40 10° WSW 18:25:34 55° S 18:32:05 10° E daylight
20 Nov - 20:12:43 10° W 20:19:26 60° S 20:25:50 10° ESE daylight
20 Nov - 22:07:05 10° W 22:13:05 38° SSW 22:18:59 10° SE daylight
21 Nov - 00:03:03 10° WSW 00:06:23 14° SSW 00:09:43 10° S visible
21 Nov - 15:32:12 10° SSW 15:38:03 25° SSE 15:43:38 10° ESE daylight
21 Nov - 17:24:47 10° WSW 17:31:44 49° SSE 17:38:18 10° E daylight
21 Nov - 19:18:44 10° W 19:25:37 62° S 19:32:08 10° ESE daylight
21 Nov - 21:13:02 10° W 21:19:23 45° SSW 21:25:31 10° SE daylight
21 Nov - 23:08:14 10° WSW 23:12:45 20° SSW 23:17:14 10° SSE daylight
